Location: Devore Heights
(34.2372°N, 117.4156°W)
Time: 20:11:07
(UTC+00:00)

deb Explorer IX - Pass Details

Date: 21 September 2024
Orbit: 502 x 816 km, 38.7° (Epoch: 15 October)

Event Time Altitude Azimuth Distance (km) Brightness Sun altitude
Rises 05:45:45 0° 290° (WNW) 3,398 ? -45.8°
Enters shadow 05:48:12 - 289° (WNW) 2,509 ? -46.1°
Reaches altitude 10° 05:48:19 10° 289° (WNW) 2,463 - -46.1°
Maximum altitude 05:54:14 76° 204° (SSW) 855 - -47.0°
Drops below altitude 10° 05:59:52 10° 120° (ESE) 2,357 - -47.7°
Sets 06:02:17 0° 118° (ESE) 3,242 - -48.1°
